Qasigiannguit

KL  EN  DA
ASIAQ
Weather Now GREENLAND SURVEY
Updated [WGT/WGST] Temperature [°C] Wind [m/s] Air pressure [hPa] Relative humidity [%] Precipitation [mm]
Present Wind chill Speed Max
27.09 01:00-7,6-11,82,3 ⇓3,51019690,0
27.09 00:00-7,5-12,42,9 ⇓3,91019700,0
26.09 23:00-7,5-12,32,8 ⇓3,81019730,0
26.09 22:00-7,4-12,22,8 ⇓3,81018740,0
26.09 21:00-6,9-10,31,9 ⇓3,51018750,0
26.09 20:00-6,5-9,21,5 ⇐3,81018740,0
26.09 19:00-4,8-7,71,8 ⇐3,51018660,0
26.09 18:00-4,9-7,41,5 ⇙2,61017700,0
26.09 17:00-4,90,01,2 ⇙2,31017650,0
26.09 16:00-4,70,01,0 ⇐1,61017630,0
26.09 15:00-4,4-6,41,3 ⇖2,61017620,0
26.09 14:00-4,1-6,51,5 ⇖2,41017630,0
26.09 13:00-5,30,00,7 ⇐1,91016610,0
26.09 12:00-5,80,00,9 ⇐1,91017610,0
26.09 11:00-5,30,01,3 ⇙2,51016580,0
26.09 10:00-7,8-12,93,0 ⇓4,81017740,0
26.09 09:00-8,7-14,33,4 ⇓4,81017770,0
26.09 08:00-9,6-14,62,7 ⇓3,31017820,0
26.09 07:00-9,3-13,42,1 ⇓3,41017790,0
26.09 06:00-8,8-13,42,4 ⇓4,01017810,0
26.09 05:00-8,0-13,23,2 ⇓4,81017790,0
26.09 04:00-8,2-11,01,4 ⇙3,31017780,0
26.09 03:00-7,4-11,22,0 ⇓3,31017730,0
26.09 02:00-6,0-8,91,7 ⇓2,41017750,0
26.09 01:00-5,5-9,02,1 ⇓3,61017690,0
Position: (68.823667,-51.173861)

[Back]